Theta_e
331 336 336 335 335 334 332 329 326 322 319 318 317 316 314 312 311 309 308 306 303 301 300 300 299 300 299 299 300 300 301 300 297 301 304 306 305 304 304 306 306 304 304
333 336 335 335 334 331 328 323 322 318 318 317 316 314 313 312 311 310 307 304 301 299 299 299 299 300 299 299 299 299 299 300 298 297 301 302 302 303 304 305 303 304 303
334 335 335 334 328 323 321 320 319 317 316 316 315 313 312 311 310 308 305 302 300 299 299 299 299 300 299 299 300 299 299 299 299 298 298 301 301 302 302 304 303 303 304
335 336 331 325 322 320 319 318 317 316 314 313 312 311 310 309 308 306 304 302 301 300 299 299 300 300 300 299 300 299 299 298 298 297 298 298 299 302 302 299 299 302 302
335 331 325 321 319 317 314 313 313 311 310 309 308 308 308 306 304 302 299 297 297 297 297 297 298 301 301 300 300 299 298 297 296 296 295 295 297 296 296 299 298 300 301
327 321 319 316 315 312 310 309 308 306 306 306 305 305 305 302 300 300 297 295 295 294 294 294 296 297 297 297 298 299 298 297 295 294 293 292 294 295 296 298 298 297 295
317 315 313 311 308 307 306 305 305 303 303 303 303 305 301 299 297 297 297 294 294 293 293 293 294 294 295 294 294 295 295 296 297 296 292 293 292 295 295 298 298 297 297
312 310 308 306 303 302 301 301 299 300 300 300 301 300 297 297 296 295 295 294 294 294 294 293 292 293 294 294 292 293 294 294 295 296 295 295 296 296 298 300 299 299 300
308 306 304 303 302 302 299 299 296 296 296 295 297 295 295 296 295 294 294 293 292 292 292 294 293 292 292 293 291 290 292 293 295 296 296 295 294 296 298 300 297 296 294
306 305 305 304 302 298 297 294 295 295 293 294 293 294 296 294 294 293 293 292 290 290 290 290 291 291 291 291 290 290 289 290 292 293 295 296 296 296 299 300 299 295 294
304 302 301 301 297 296 294 294 293 292 291 291 290 291 293 294 293 293 292 290 289 288 287 288 289 290 290 290 290 289 289 291 291 292 293 294 295 294 296 300 300 298 295
300 298 297 296 295 294 292 291 291 291 289 289 290 289 291 292 293 292 291 291 290 287 287 288 288 289 288 289 289 288 289 290 291 291 291 292 291 292 295 299 300 301 300
297 295 294 293 293 292 291 289 289 290 289 289 288 288 287 288 289 291 291 290 290 287 289 288 288 288 288 288 288 288 288 289 289 288 289 290 291 293 298 298 299 301 300
295 293 292 291 290 290 290 290 289 289 289 288 287 286 286 286 286 287 286 286 287 286 285 287 287 286 287 287 287 287 287 288 288 287 289 291 292 293 296 297 296 298 297
294 292 290 289 287 287 287 287 287 288 289 287 286 287 286 286 287 288 287 286 286 285 285 285 284 284 284 285 285 286 287 287 287 288 289 290 291 292 295 296 296 296 295
290 289 288 287 288 288 287 287 290 289 290 289 289 288 288 288 288 287 286 286 286 286 284 283 282 283 283 283 283 284 286 286 286 287 288 289 290 291 294 295 295 294 294
288 288 288 288 288 288 288 288 286 288 290 289 289 288 288 287 287 286 285 285 284 285 283 282 282 282 282 283 283 284 284 285 287 287 288 289 290 292 294 293 293 293 293
289 290 289 289 289 288 288 287 287 286 285 286 288 287 287 286 286 285 284 284 283 282 282 281 281 282 282 282 283 283 284 286 286 286 288 289 290 293 293 292 292 292 293
289 289 289 289 288 288 287 287 286 286 285 284 285 285 286 285 284 284 283 281 281 280 281 281 281 281 282 282 283 284 285 285 285 286 287 289 290 294 293 293 293 290 291
289 289 288 288 288 287 287 286 285 285 284 284 283 283 283 283 281 281 281 281 280 280 281 281 281 282 281 282 282 283 285 285 285 285 286 289 292 294 293 293 293 293 293
289 289 288 288 287 287 287 286 286 285 284 284 283 283 280 282 280 280 280 280 280 280 280 280 280 281 281 282 282 284 285 285 284 285 286 289 293 293 294 294 293 294 292
289 289 288 288 288 287 287 286 286 286 285 284 284 283 281 282 281 280 280 280 280 281 281 281 281 281 281 281 282 283 284 284 284 284 286 289 293 293 293 293 293 293 293
289 288 288 288 288 287 287 286 286 286 285 285 285 284 283 282 281 281 280 281 281 281 281 281 281 281 282 283 283 283 283 284 283 284 286 289 293 294 294 293 292 292 292
289 289 288 288 287 287 286 286 286 285 286 285 285 284 283 283 282 281 281 281 281 281 282 281 282 282 283 283 284 284 284 285 286 285 287 290 292 293 293 292 292 291 292
289 288 288 287 287 286 286 286 286 286 286 286 285 284 284 283 283 282 281 281 281 281 281 282 282 282 283 283 284 284 283 282 285 284 288 290 291 292 292 292 292 291 292
289 288 287 287 287 287 286 286 286 286 286 286 285 285 285 284 283 283 282 281 281 281 281 282 282 282 283 283 283 281 281 282 284 283 289 290 290 290 291 291 291 290 291
Wind_Speed
17 14 16 14 12 14 12 12 13 14 15 14 10 11 11 11 11 10 9 8 8 6 6 6 7 5 3 4 4 4 3 2 6 10 10 11 13 13 13 13 13 11 10
17 16 15 15 14 14 14 12 15 14 12 12 12 11 12 12 10 9 9 7 8 8 7 8 7 5 6 7 5 6 4 5 4 12 11 10 11 14 14 13 12 9 10
17 18 16 17 15 14 16 15 15 17 14 12 12 12 12 10 10 8 9 8 9 8 8 6 7 8 9 7 6 7 6 6 6 6 9 9 9 10 12 12 12 12 8
17 18 17 17 18 17 16 16 15 16 15 13 11 13 11 11 10 10 9 9 7 7 5 7 8 9 9 9 8 8 7 7 7 8 8 9 9 12 10 12 12 10 10
17 17 18 18 19 19 18 17 16 16 12 12 14 12 11 10 7 9 9 7 7 7 7 8 8 13 17 14 7 7 7 6 7 8 9 10 9 11 13 11 10 10 11
19 19 19 20 19 19 18 17 17 16 13 13 13 12 11 7 15 15 11 8 9 8 8 8 8 12 13 15 15 11 8 7 8 6 6 9 12 10 11 11 9 10 9
21 21 21 20 20 19 18 16 15 10 13 14 13 13 11 9 16 15 14 8 9 8 8 7 8 9 13 11 12 12 9 10 8 6 9 10 12 13 12 13 13 12 9
22 22 21 22 22 20 20 17 14 11 12 11 12 11 12 9 13 14 15 10 9 8 7 8 9 11 12 11 9 9 10 8 11 9 9 10 10 12 12 12 11 11 9
22 22 22 24 24 21 20 17 14 13 13 11 10 10 12 8 12 14 13 8 7 7 7 10 11 10 13 15 10 10 10 11 13 16 13 13 18 17 16 9 11 10 11
22 22 22 23 22 20 17 19 13 14 13 10 10 9 11 9 14 14 10 5 6 5 8 9 14 11 14 15 9 9 11 11 13 15 14 15 15 15 19 12 10 10 10
23 22 20 18 21 22 19 13 14 14 14 11 10 8 10 11 12 15 9 6 6 6 7 6 6 15 13 13 11 12 11 11 13 10 10 10 12 12 10 11 11 9 9
26 24 22 21 16 14 22 15 14 14 13 11 11 11 10 10 13 13 13 14 10 7 4 4 8 12 12 16 13 17 16 12 9 10 10 10 10 11 10 10 11 9 7
27 25 23 18 18 15 16 16 12 12 10 10 10 10 8 6 5 15 16 13 11 5 5 10 9 13 16 12 18 19 14 10 9 10 10 10 9 10 9 10 10 9 8
29 25 22 17 17 13 11 10 10 9 10 9 10 9 6 5 6 5 7 5 8 9 8 7 10 14 14 11 12 12 10 10 10 10 9 9 8 10 9 8 7 8 7
25 21 18 14 15 14 12 8 10 8 8 10 8 6 8 6 6 8 6 5 6 6 5 8 10 9 10 10 10 11 10 10 11 10 10 10 9 9 9 8 8 7 8
22 16 14 13 13 13 14 14 22 21 22 21 18 12 8 13 14 15 16 13 10 10 7 10 9 10 11 11 11 11 10 13 11 10 9 8 9 9 9 9 7 6 7
22 18 15 15 14 14 13 13 15 17 24 20 18 17 15 14 15 14 11 15 14 8 11 9 10 10 10 10 10 9 10 10 11 9 8 8 9 8 9 8 8 7 6
21 26 15 14 14 13 13 13 12 12 11 9 15 14 17 18 16 12 8 6 9 12 9 9 9 9 9 9 9 9 10 10 9 9 8 9 9 8 8 8 8 7 7
18 15 15 13 12 15 14 12 11 11 10 10 9 12 14 16 16 15 13 10 10 8 7 9 9 9 8 8 9 9 9 9 8 8 8 9 9 8 8 8 8 9 7
16 25 19 14 13 13 12 12 11 10 9 8 7 7 5 8 9 9 10 10 7 7 8 9 8 7 8 9 9 9 9 10 9 8 8 9 9 8 8 8 8 8 7
13 14 21 14 12 11 10 11 10 9 9 8 8 8 7 9 9 9 8 7 7 9 9 8 7 8 8 8 9 8 9 9 8 8 8 9 9 9 9 8 8 8 9
13 13 13 12 11 12 11 10 9 9 9 10 9 9 9 9 9 7 7 7 8 8 7 7 7 7 7 8 8 8 9 10 9 9 8 9 9 9 8 9 9 9 9
14 15 13 11 11 14 11 9 9 9 9 9 9 9 8 8 7 7 7 7 8 8 7 8 8 7 6 6 6 7 8 9 8 7 8 9 9 9 10 10 10 10 10
15 14 14 12 11 11 10 10 9 10 10 9 8 8 8 7 7 9 7 8 8 8 8 7 7 8 7 7 7 7 8 8 7 7 10 9 10 11 11 10 11 12 10
13 13 12 12 11 11 11 10 9 9 9 8 8 7 7 6 8 8 8 7 8 8 8 7 6 8 10 13 13 14 13 13 13 10 8 12 14 15 12 11 11 11 13
12 12 11 10 10 10 10 9 8 8 8 8 7 7 7 6 7 7 7 8 7 6 6 5 7 11 13 11 13 13 13 14 14 14 10 11 11 11 10 13 16 11 12
Wind_Direction
162 163 161 154 148 137 136 135 129 122 130 125 129 128 121 115 95 97 93 93 86 67 51 49 48 44 11 18 18 4 13 349 298 304 309 309 312 322 318 327 334 328 326
166 162 159 147 148 136 134 128 126 120 115 124 128 117 112 104 103 104 100 92 81 64 50 44 34 24 22 22 10 8 358 332 297 308 315 323 324 320 313 325 334 328 328
161 157 151 147 132 128 126 130 126 118 115 115 112 109 100 101 98 99 96 87 76 66 52 42 27 16 13 0 357 7 352 334 315 296 308 317 317 315 325 334 332 326 333
158 156 144 133 129 127 126 120 117 114 115 110 110 98 103 98 102 98 95 78 69 61 46 38 25 16 6 355 1 355 344 328 329 325 321 325 318 337 337 336 331 338 336
150 144 134 126 125 120 115 114 110 103 105 114 103 96 92 91 99 102 86 83 70 57 38 28 19 16 11 8 0 346 330 338 336 330 329 328 333 342 345 331 327 333 339
133 125 123 122 119 115 112 114 109 111 107 106 96 101 92 99 100 91 89 79 66 54 39 24 20 16 11 9 3 350 354 345 334 324 318 339 331 335 332 330 333 344 348
121 121 119 118 112 109 107 102 99 116 119 105 103 100 100 95 87 89 84 76 70 53 42 26 29 23 13 2 348 353 353 357 345 322 340 347 328 331 326 335 339 337 332
123 120 118 116 108 104 102 101 97 91 90 88 86 95 93 84 92 95 87 77 71 56 43 38 34 26 6 1 355 356 353 343 345 352 352 336 330 326 339 337 332 324 327
124 122 121 117 114 116 115 113 94 97 85 80 96 104 99 96 91 84 83 74 65 52 39 32 34 23 359 10 16 355 346 358 345 354 349 349 355 343 346 341 355 347 351
122 120 119 119 119 113 110 101 105 98 85 93 91 83 98 86 77 75 77 91 71 44 37 26 19 17 10 13 17 1 7 351 346 351 356 3 4 352 351 3 351 3 353
109 104 104 107 110 108 102 99 101 97 100 95 89 76 77 77 72 72 71 75 64 52 36 15 12 15 12 18 17 22 359 335 355 1 2 7 4 355 348 360 1 12 4
108 103 103 102 99 103 106 107 104 110 105 109 104 85 67 62 69 75 73 65 60 60 33 18 23 2 14 21 19 11 4 5 11 11 13 11 356 348 345 355 0 1 3
105 103 95 94 97 106 110 113 113 106 109 110 100 89 73 62 61 61 61 56 60 64 41 41 15 20 25 21 18 16 11 12 10 18 5 1 348 335 348 0 3 2 2
103 98 101 101 105 100 99 95 106 112 107 103 98 93 95 80 59 47 57 47 52 51 36 36 36 36 36 21 20 18 16 5 8 11 360 356 351 352 5 6 1 358 14
98 102 104 108 100 95 77 90 90 58 96 107 99 111 94 81 62 70 74 59 46 41 51 42 37 28 23 18 15 16 6 5 13 358 359 4 0 354 4 3 5 2 25
105 107 112 109 107 103 96 85 70 87 88 84 77 89 79 86 86 75 64 54 44 40 58 48 37 34 30 18 11 7 3 6 4 357 357 2 359 353 360 4 10 10 18
114 116 111 109 107 109 108 108 107 71 71 77 83 83 86 93 76 73 77 66 49 56 58 47 43 33 25 16 8 4 360 357 349 0 353 358 359 353 7 7 7 11 10
105 105 106 109 107 107 110 101 98 105 107 88 63 83 76 74 66 56 60 77 52 46 50 48 42 31 22 11 2 4 358 354 355 353 355 358 0 1 9 11 9 7 2
104 104 105 104 103 101 94 99 104 103 101 102 98 76 73 77 70 63 62 63 59 47 44 48 38 30 18 5 5 359 353 353 345 353 357 360 358 7 10 9 5 4 3
102 108 106 105 103 102 105 106 105 103 101 93 95 105 93 79 67 57 53 57 57 49 46 45 34 24 16 12 1 354 354 3 356 358 358 358 2 11 14 11 12 12 10
107 105 107 99 100 104 109 103 103 103 106 108 101 86 79 91 81 66 62 55 52 50 44 39 29 23 18 6 1 356 1 4 359 357 359 359 7 12 9 10 13 17 16
108 105 104 102 105 103 102 104 109 115 114 105 100 84 73 76 78 79 70 61 55 53 44 37 32 21 3 357 350 356 1 7 0 355 354 1 11 15 16 19 19 25 22
109 107 106 104 105 105 103 107 110 115 109 102 103 95 88 85 83 80 72 63 56 48 39 34 31 17 358 350 352 358 2 2 346 336 350 3 18 19 23 29 25 24 26
106 108 110 111 113 114 112 111 109 99 105 104 104 104 99 96 89 77 73 63 54 46 37 30 22 15 1 5 5 10 11 2 2 355 3 12 19 19 28 31 28 27 29
112 114 117 119 118 116 115 108 102 103 111 115 115 111 112 101 84 75 68 62 54 45 33 22 10 12 18 19 22 21 9 8 19 5 18 27 29 28 30 33 30 30 32
113 115 114 118 117 116 111 110 114 119 123 123 123 126 109 97 88 83 73 65 54 41 31 20 17 26 26 22 18 13 14 14 15 10 22 32 33 28 30 32 32 36 36